QPF
0.00 0.00 0.00 0.00 0.00 0.00 0.00 0.00 0.00 0.00 0.00 0.00 0.00 0.00 0.00 0.00 0.00 0.00 0.00 0.00 0.00 0.00 0.00 0.00 0.00 0.00 0.00 0.00 0.00 0.00 0.00 0.00 0.00 0.00 0.00 0.00 0.00 0.00 0.00 0.00 0.00 0.00 0.00 0.00 0.00
0.00 0.00 0.00 0.00 0.00 0.00 0.00 0.00 0.00 0.00 0.00 0.00 0.00 0.00 0.00 0.00 0.00 0.00 0.00 0.00 0.00 0.00 0.00 0.00 0.00 0.00 0.00 0.00 0.00 0.00 0.00 0.00 0.00 0.00 0.00 0.00 0.00 0.00 0.00 0.00 0.00 0.00 0.00 0.00 0.00
0.00 0.00 0.00 0.00 0.00 0.00 0.00 0.00 0.00 0.00 0.00 0.00 0.00 0.00 0.00 0.00 0.00 0.00 0.00 0.00 0.00 0.00 0.00 0.00 0.00 0.00 0.00 0.00 0.00 0.00 0.00 0.00 0.00 0.00 0.00 0.00 0.00 0.00 0.00 0.00 0.00 0.00 0.00 0.00 0.00
0.00 0.00 0.00 0.00 0.00 0.00 0.00 0.00 0.00 0.00 0.00 0.00 0.00 0.00 0.00 0.00 0.00 0.00 0.00 0.00 0.00 0.00 0.00 0.00 0.00 0.00 0.00 0.00 0.00 0.00 0.00 0.00 0.00 0.00 0.00 0.00 0.00 0.00 0.00 0.00 0.00 0.00 0.00 0.00 0.00
0.00 0.00 0.00 0.00 0.00 0.00 0.00 0.00 0.00 0.00 0.00 0.00 0.00 0.00 0.00 0.00 0.00 0.00 0.00 0.00 0.00 0.00 0.00 0.00 0.00 0.00 0.00 0.00 0.00 0.00 0.00 0.00 0.00 0.00 0.00 0.00 0.00 0.00 0.00 0.00 0.00 0.00 0.00 0.00 0.00
0.00 0.00 0.00 0.00 0.00 0.00 0.00 0.00 0.00 0.00 0.00 0.00 0.00 0.00 0.00 0.00 0.00 0.00 0.00 0.00 0.00 0.00 0.00 0.00 0.00 0.00 0.00 0.00 0.00 0.00 0.00 0.00 0.00 0.00 0.00 0.00 0.00 0.00 0.00 0.00 0.00 0.00 0.00 0.00 0.00
0.00 0.00 0.00 0.00 0.00 0.00 0.00 0.00 0.00 0.00 0.00 0.00 0.00 0.00 0.00 0.00 0.00 0.00 0.00 0.00 0.00 0.00 0.00 0.00 0.00 0.00 0.00 0.00 0.00 0.00 0.00 0.00 0.00 0.00 0.00 0.00 0.00 0.00 0.00 0.00 0.00 0.00 0.00 0.00 0.00
0.00 0.00 0.00 0.00 0.00 0.00 0.00 0.00 0.00 0.00 0.00 0.00 0.00 0.00 0.00 0.00 0.00 0.00 0.00 0.00 0.00 0.00 0.00 0.00 0.00 0.00 0.00 0.00 0.00 0.00 0.00 0.00 0.00 0.00 0.00 0.00 0.00 0.00 0.00 0.00 0.00 0.00 0.00 0.00 0.00
0.00 0.00 0.00 0.00 0.00 0.00 0.00 0.00 0.00 0.00 0.00 0.00 0.00 0.00 0.00 0.00 0.00 0.00 0.00 0.00 0.00 0.00 0.00 0.00 0.00 0.00 0.00 0.00 0.00 0.00 0.00 0.00 0.00 0.00 0.00 0.00 0.00 0.00 0.00 0.00 0.00 0.00 0.00 0.00 0.00
0.00 0.00 0.00 0.00 0.00 0.00 0.00 0.00 0.00 0.00 0.00 0.00 0.00 0.00 0.00 0.00 0.00 0.00 0.00 0.00 0.00 0.00 0.00 0.00 0.00 0.00 0.00 0.00 0.00 0.00 0.00 0.00 0.00 0.00 0.00 0.00 0.00 0.00 0.00 0.00 0.00 0.00 0.00 0.00 0.00
0.00 0.00 0.00 0.00 0.00 0.00 0.00 0.00 0.00 0.00 0.00 0.00 0.00 0.00 0.00 0.00 0.00 0.00 0.00 0.00 0.00 0.00 0.00 0.00 0.00 0.00 0.00 0.00 0.00 0.00 0.00 0.00 0.00 0.00 0.00 0.00 0.00 0.00 0.00 0.00 0.00 0.00 0.00 0.00 0.00
0.00 0.00 0.00 0.00 0.00 0.00 0.00 0.00 0.00 0.00 0.00 0.00 0.00 0.00 0.00 0.00 0.00 0.00 0.00 0.00 0.00 0.00 0.00 0.00 0.00 0.00 0.00 0.00 0.00 0.00 0.00 0.00 0.00 0.00 0.00 0.00 0.00 0.00 0.00 0.00 0.00 0.00 0.00 0.00 0.00
0.00 0.00 0.00 0.00 0.00 0.00 0.00 0.00 0.00 0.00 0.00 0.00 0.00 0.00 0.00 0.00 0.00 0.00 0.00 0.00 0.00 0.00 0.00 0.00 0.00 0.00 0.00 0.00 0.00 0.00 0.00 0.00 0.00 0.00 0.00 0.00 0.00 0.00 0.00 0.00 0.00 0.00 0.00 0.00 0.00
0.00 0.00 0.00 0.00 0.00 0.00 0.00 0.00 0.00 0.00 0.00 0.00 0.00 0.00 0.00 0.00 0.00 0.00 0.00 0.00 0.00 0.00 0.00 0.00 0.00 0.00 0.00 0.00 0.00 0.00 0.00 0.00 0.00 0.00 0.00 0.00 0.00 0.00 0.00 0.00 0.00 0.00 0.00 0.00 0.00
0.00 0.00 0.00 0.00 0.00 0.00 0.00 0.00 0.00 0.00 0.00 0.00 0.00 0.00 0.00 0.00 0.00 0.00 0.00 0.00 0.00 0.00 0.00 0.00 0.00 0.00 0.00 0.00 0.00 0.00 0.00 0.00 0.00 0.00 0.00 0.00 0.00 0.00 0.00 0.00 0.00 0.00 0.00 0.00 0.00
0.00 0.00 0.00 0.00 0.00 0.00 0.00 0.00 0.00 0.00 0.00 0.00 0.00 0.00 0.00 0.00 0.00 0.00 0.00 0.00 0.00 0.00 0.00 0.00 0.00 0.00 0.00 0.00 0.00 0.00 0.00 0.00 0.00 0.00 0.00 0.00 0.00 0.00 0.00 0.00 0.00 0.00 0.00 0.00 0.00
0.00 0.00 0.00 0.00 0.00 0.00 0.00 0.00 0.00 0.00 0.00 0.00 0.00 0.00 0.00 0.00 0.00 0.00 0.00 0.00 0.00 0.00 0.00 0.00 0.00 0.00 0.00 0.00 0.00 0.00 0.00 0.00 0.00 0.00 0.00 0.00 0.00 0.00 0.00 0.00 0.00 0.00 0.00 0.00 0.00
0.00 0.00 0.00 0.00 0.00 0.00 0.00 0.00 0.00 0.00 0.00 0.00 0.00 0.00 0.00 0.00 0.00 0.00 0.00 0.00 0.00 0.00 0.00 0.00 0.00 0.00 0.00 0.00 0.00 0.00 0.00 0.00 0.00 0.00 0.00 0.00 0.00 0.00 0.00 0.00 0.00 0.00 0.00 0.00 0.00
0.00 0.00 0.00 0.00 0.00 0.00 0.00 0.00 0.00 0.00 0.00 0.00 0.00 0.00 0.00 0.00 0.00 0.00 0.00 0.00 0.00 0.00 0.00 0.00 0.00 0.00 0.00 0.00 0.00 0.00 0.00 0.00 0.00 0.00 0.00 0.00 0.00 0.00 0.00 0.00 0.00 0.00 0.00 0.00 0.00
0.00 0.01 0.00 0.00 0.00 0.00 0.00 0.00 0.00 0.00 0.00 0.00 0.00 0.00 0.00 0.00 0.00 0.00 0.00 0.00 0.00 0.00 0.00 0.00 0.00 0.00 0.00 0.00 0.00 0.00 0.00 0.00 0.00 0.02 0.01 0.00 0.00 0.00 0.00 0.00 0.00 0.00 0.00 0.00 0.00
0.01 0.01 0.01 0.00 0.00 0.00 0.00 0.00 0.00 0.00 0.00 0.00 0.00 0.00 0.00 0.00 0.00 0.00 0.00 0.00 0.00 0.00 0.00 0.00 0.00 0.00 0.00 0.00 0.00 0.00 0.00 0.00 0.00 0.00 0.00 0.00 0.00 0.00 0.00 0.00 0.00 0.01 0.01 0.00 0.00
0.01 0.01 0.05 0.01 0.00 0.00 0.00 0.00 0.00 0.00 0.00 0.00 0.00 0.00 0.00 0.00 0.00 0.00 0.00 0.00 0.00 0.00 0.00 0.00 0.00 0.00 0.00 0.00 0.00 0.00 0.00 0.00 0.02 0.01 0.01 0.01 0.01 0.00 0.00 0.00 0.00 0.00 0.00 0.00 0.01
0.01 0.00 0.05 0.04 0.01 0.00 0.00 0.00 0.00 0.00 0.00 0.00 0.00 0.00 0.00 0.00 0.00 0.00 0.00 0.00 0.00 0.00 0.00 0.00 0.00 0.00 0.00 0.00 0.00 0.00 0.00 0.00 0.01 0.01 0.01 0.02 0.00 0.00 0.00 0.00 0.00 0.00 0.00 0.00 0.01
0.00 0.00 0.01 0.02 0.00 0.00 0.00 0.00 0.00 0.00 0.00 0.00 0.00 0.00 0.00 0.00 0.00 0.00 0.00 0.00 0.00 0.00 0.00 0.00 0.00 0.00 0.00 0.00 0.00 0.00 0.00 0.00 0.02 0.05 0.03 0.02 0.02 0.00 0.00 0.00 0.00 0.00 0.00 0.01 0.02
0.00 0.00 0.00 0.00 0.00 0.00 0.00 0.00 0.00 0.00 0.00 0.00 0.00 0.00 0.00 0.00 0.00 0.00 0.00 0.00 0.00 0.00 0.00 0.00 0.00 0.00 0.00 0.00 0.00 0.00 0.00 0.00 0.00 0.01 0.02 0.00 0.01 0.00 0.00 0.00 0.00 0.00 0.00 0.01 0.02
0.00 0.00 0.01 0.00 0.00 0.00 0.01 0.00 0.00 0.00 0.00 0.00 0.00 0.00 0.00 0.00 0.00 0.00 0.00 0.00 0.00 0.00 0.00 0.00 0.00 0.00 0.00 0.00 0.00 0.00 0.00 0.00 0.00 0.00 0.00 0.00 0.00 0.00 0.00 0.00 0.00 0.00 0.01 0.02 0.01
0.00 0.00 0.01 0.02 0.01 0.01 0.01 0.00 0.00 0.00 0.00 0.00 0.00 0.00 0.00 0.00 0.00 0.00 0.00 0.00 0.00 0.00 0.00 0.00 0.01 0.02 0.01 0.01 0.01 0.00 0.00 0.00 0.00 0.00 0.00 0.00 0.00 0.00 0.00 0.00 0.00 0.00 0.01 0.02 0.00
MSLP
1019.17 1019.17 1019.23 1019.27 1019.22 1019.08 1019.00 1018.89 1018.77 1018.55 1018.29 1017.98 1017.47 1016.93 1016.18 1015.64 1014.58 1013.17 1012.39 1013.01 1012.71 1012.18 1011.89 1010.64 1009.00 1007.74 1007.48 1006.76 1006.23 1006.18 1005.79 1004.23 1003.06 1002.29 1003.19 1003.87 1003.95 1004.50 1005.21 1005.42 1005.67 1005.97 1006.50 1007.55 1007.97
1019.00 1019.08 1019.32 1019.35 1019.31 1019.19 1019.03 1018.89 1018.66 1018.41 1018.29 1018.03 1017.33 1016.72 1016.14 1015.72 1014.42 1013.07 1013.13 1012.75 1012.52 1012.30 1011.31 1009.93 1008.72 1008.31 1007.30 1006.20 1005.95 1005.96 1005.15 1004.14 1004.39 1004.29 1004.20 1004.42 1004.55 1004.68 1005.28 1005.20 1005.76 1006.34 1006.98 1007.81 1008.51
1018.90 1019.12 1019.17 1019.43 1019.18 1019.25 1019.07 1018.81 1018.72 1018.40 1018.19 1018.03 1017.42 1016.67 1015.94 1015.49 1013.78 1012.70 1012.81 1012.69 1012.63 1012.41 1011.33 1010.28 1009.23 1008.57 1007.53 1006.46 1005.75 1005.67 1005.17 1004.48 1004.71 1005.69 1005.54 1005.10 1005.08 1005.36 1005.66 1005.74 1006.14 1006.91 1007.67 1008.49 1009.03
1018.89 1019.00 1019.14 1019.30 1019.24 1019.13 1019.32 1018.91 1018.58 1018.34 1018.12 1017.98 1017.40 1016.61 1015.72 1014.92 1013.02 1012.60 1012.73 1012.64 1012.40 1012.25 1011.26 1010.13 1009.12 1008.13 1007.37 1006.40 1005.55 1005.64 1005.50 1005.06 1005.55 1005.89 1006.17 1005.65 1005.66 1005.74 1006.03 1006.24 1007.11 1007.62 1008.48 1009.34 1009.81
1018.92 1018.98 1019.17 1019.32 1019.25 1019.20 1019.10 1019.00 1018.61 1018.30 1018.04 1017.88 1017.26 1016.89 1015.58 1013.68 1011.78 1012.12 1012.42 1012.34 1011.99 1011.42 1010.73 1009.96 1009.26 1008.19 1007.26 1006.42 1006.07 1005.97 1005.78 1005.57 1005.87 1006.15 1006.45 1006.40 1006.13 1006.27 1006.18 1006.39 1007.50 1008.09 1009.25 1009.99 1010.55
1019.12 1018.93 1019.17 1019.25 1019.20 1019.14 1018.98 1018.97 1018.61 1018.27 1018.10 1017.74 1017.49 1016.95 1015.63 1013.12 1011.22 1011.36 1011.64 1011.62 1011.14 1010.62 1010.13 1009.62 1009.15 1008.51 1008.04 1007.47 1007.20 1006.31 1006.16 1006.13 1006.00 1006.01 1006.06 1006.28 1005.99 1005.94 1005.72 1006.16 1007.40 1008.14 1009.23 1010.59 1011.34
1019.13 1019.17 1019.13 1019.32 1019.31 1018.99 1018.64 1018.84 1018.57 1018.21 1017.95 1017.84 1017.67 1016.86 1014.69 1012.29 1010.86 1011.47 1011.35 1011.38 1010.97 1010.72 1010.20 1009.62 1009.77 1009.42 1008.35 1007.91 1007.46 1007.09 1007.00 1006.39 1005.78 1005.75 1005.85 1005.94 1005.94 1005.28 1005.31 1005.99 1007.24 1007.79 1008.86 1010.72 1011.73
1018.81 1018.96 1019.41 1019.32 1019.26 1019.16 1018.56 1018.66 1018.50 1018.09 1017.77 1017.81 1017.75 1016.59 1013.47 1011.02 1011.22 1011.41 1011.31 1010.80 1010.85 1010.82 1010.88 1010.61 1010.53 1009.99 1009.14 1008.39 1007.79 1007.37 1006.82 1005.74 1004.38 1004.18 1005.66 1006.56 1005.45 1004.17 1005.00 1005.87 1006.91 1007.45 1008.74 1010.44 1012.09
1018.94 1018.74 1019.23 1019.55 1019.04 1019.04 1018.69 1018.44 1018.27 1018.02 1017.69 1017.82 1017.25 1015.60 1012.39 1011.41 1011.08 1010.83 1010.93 1010.25 1010.29 1010.68 1010.87 1010.67 1010.65 1009.91 1008.70 1008.53 1007.72 1006.44 1005.59 1004.57 1004.06 1004.29 1005.07 1005.96 1005.46 1004.79 1005.37 1006.06 1006.49 1007.14 1008.11 1009.99 1011.86
1018.97 1019.09 1019.20 1019.28 1019.38 1018.70 1018.69 1018.18 1017.74 1017.86 1017.20 1016.79 1015.76 1015.06 1012.00 1010.45 1010.08 1010.61 1010.56 1010.21 1010.13 1010.34 1010.68 1010.75 1010.17 1009.31 1008.65 1007.87 1006.73 1005.39 1004.85 1004.23 1003.92 1004.46 1005.08 1005.26 1005.27 1005.31 1005.29 1005.48 1005.73 1006.41 1007.80 1009.55 1011.42
1019.05 1019.33 1019.16 1019.33 1019.24 1019.03 1018.51 1017.53 1017.49 1016.98 1015.70 1013.49 1012.58 1011.64 1010.38 1010.13 1010.48 1010.29 1010.00 1010.12 1009.94 1010.31 1009.97 1009.48 1009.24 1008.20 1007.35 1006.59 1006.15 1005.58 1005.49 1005.22 1004.72 1004.30 1004.50 1004.54 1004.74 1004.98 1005.40 1005.34 1005.37 1006.05 1007.25 1008.89 1011.54
1018.90 1019.18 1019.19 1019.26 1019.30 1019.02 1018.83 1016.98 1015.29 1016.00 1014.26 1012.36 1011.45 1010.80 1010.29 1009.95 1010.24 1009.67 1009.64 1009.76 1009.58 1009.45 1009.32 1008.72 1007.88 1007.42 1006.96 1006.64 1006.58 1006.82 1006.23 1005.82 1005.44 1005.22 1005.15 1005.09 1004.71 1005.18 1005.18 1004.92 1005.19 1005.70 1007.18 1009.17 1011.42
1019.00 1019.07 1019.01 1019.25 1019.17 1019.02 1017.60 1016.04 1015.51 1015.77 1014.26 1011.00 1009.72 1009.07 1009.32 1009.97 1009.56 1008.90 1009.08 1009.28 1009.09 1008.98 1008.87 1007.82 1006.72 1006.30 1006.94 1006.78 1006.90 1007.11 1006.72 1006.33 1005.91 1005.70 1005.65 1005.76 1004.85 1004.74 1004.11 1004.24 1005.11 1006.68 1007.77 1009.18 1011.05
1018.81 1018.96 1019.24 1019.30 1019.52 1017.15 1016.76 1016.11 1015.76 1016.33 1013.97 1009.29 1008.68 1008.20 1008.78 1009.80 1009.15 1008.80 1008.12 1008.85 1008.79 1008.33 1008.34 1007.51 1006.96 1006.24 1006.46 1007.09 1007.57 1007.04 1006.92 1006.54 1006.66 1006.75 1006.23 1006.20 1004.51 1004.19 1003.98 1004.29 1005.70 1007.01 1008.07 1009.34 1010.82
1019.20 1018.97 1019.18 1019.03 1018.50 1017.19 1017.08 1016.63 1016.39 1016.35 1013.00 1008.12 1008.48 1009.04 1008.71 1009.12 1008.56 1008.38 1008.22 1008.60 1008.45 1008.04 1008.41 1007.01 1006.75 1006.74 1006.73 1006.76 1007.29 1007.16 1007.41 1007.89 1007.94 1007.59 1007.28 1006.39 1005.99 1003.22 1003.88 1003.26 1004.91 1006.91 1008.56 1009.74 1011.04
1018.99 1019.32 1019.32 1018.93 1018.15 1017.17 1017.45 1017.31 1016.82 1015.55 1010.75 1007.72 1008.04 1008.71 1008.92 1008.86 1008.27 1008.63 1009.28 1009.42 1008.88 1008.80 1007.90 1007.55 1007.13 1006.88 1006.82 1006.91 1007.13 1007.85 1008.49 1008.40 1008.68 1008.38 1007.41 1006.46 1005.70 1003.24 1003.27 1002.83 1003.55 1006.21 1008.19 1009.51 1010.87
1018.75 1019.14 1019.28 1018.19 1017.50 1017.27 1017.80 1017.53 1016.43 1013.25 1008.91 1007.45 1007.31 1007.61 1008.12 1007.98 1008.09 1008.24 1008.67 1009.10 1008.40 1008.30 1007.54 1007.43 1006.88 1007.03 1007.30 1007.10 1007.62 1008.47 1008.58 1008.30 1007.87 1007.65 1006.56 1005.85 1004.24 1003.07 1002.94 1002.97 1003.93 1005.97 1007.68 1009.22 1010.53
1018.35 1019.03 1018.88 1018.31 1017.62 1017.91 1018.01 1017.36 1014.97 1010.59 1009.41 1007.86 1007.17 1006.94 1007.18 1006.98 1007.36 1007.68 1007.74 1007.96 1007.98 1007.14 1006.50 1006.42 1005.96 1006.11 1006.33 1006.81 1006.98 1007.54 1007.86 1008.17 1007.74 1007.53 1006.86 1006.20 1004.81 1003.89 1003.47 1003.63 1004.25 1005.59 1006.79 1008.63 1010.37
1018.39 1018.96 1018.86 1018.25 1017.96 1018.21 1018.18 1016.34 1012.42 1010.94 1008.66 1007.95 1007.36 1007.26 1006.84 1006.52 1006.56 1006.89 1007.14 1007.07 1006.67 1006.82 1006.49 1005.69 1005.03 1005.08 1005.29 1006.23 1007.17 1006.96 1007.13 1007.64 1007.95 1008.37 1007.98 1007.32 1005.65 1004.64 1003.53 1003.56 1004.82 1006.02 1007.17 1008.47 1010.00
1018.32 1018.36 1018.27 1017.85 1018.05 1018.20 1017.92 1014.69 1012.23 1010.61 1009.45 1009.00 1008.00 1007.43 1006.99 1006.64 1007.08 1007.43 1007.50 1006.95 1006.84 1007.24 1006.75 1006.47 1006.16 1005.91 1006.07 1006.78 1006.92 1007.38 1007.86 1008.10 1008.52 1009.46 1008.80 1007.60 1006.29 1005.59 1005.84 1006.25 1006.93 1007.77 1008.51 1008.91 1010.11
1018.11 1017.84 1017.29 1017.54 1018.00 1017.93 1016.12 1013.63 1012.28 1010.81 1010.66 1010.30 1009.70 1008.58 1008.12 1007.93 1007.89 1007.93 1007.64 1008.14 1008.47 1008.44 1008.35 1008.01 1007.52 1007.12 1006.77 1008.08 1007.39 1007.40 1007.80 1008.44 1009.10 1009.67 1009.50 1008.86 1007.42 1007.84 1008.13 1008.05 1008.39 1009.31 1010.45 1010.87 1009.97
1017.29 1017.36 1016.67 1017.16 1017.53 1016.75 1014.90 1013.41 1012.49 1011.36 1011.19 1010.81 1010.95 1010.47 1009.83 1009.29 1009.42 1009.16 1008.97 1009.52 1009.64 1009.89 1009.64 1009.35 1008.97 1008.28 1007.74 1007.53 1007.36 1007.80 1008.46 1008.85 1009.56 1010.12 1010.72 1010.53 1009.43 1008.01 1008.44 1008.93 1009.85 1010.34 1010.65 1010.83 1011.99
1016.36 1016.70 1016.32 1016.36 1015.75 1015.18 1014.38 1013.34 1012.63 1011.79 1011.21 1010.93 1011.21 1011.00 1010.69 1010.59 1010.75 1010.41 1010.08 1010.80 1010.98 1011.13 1010.96 1011.05 1010.41 1010.03 1009.17 1008.72 1008.01 1007.89 1008.32 1008.61 1008.89 1009.13 1009.25 1009.52 1008.05 1007.80 1007.77 1008.25 1009.11 1009.89 1011.03 1011.09 1011.15
1016.21 1016.30 1015.82 1015.88 1014.79 1013.93 1013.35 1012.93 1012.06 1011.60 1011.02 1011.31 1011.11 1011.00 1011.03 1011.14 1011.20 1011.18 1010.94 1010.83 1011.39 1011.75 1012.19 1012.32 1011.62 1011.08 1010.42 1009.53 1009.14 1008.91 1008.97 1008.83 1008.69 1009.20 1009.16 1008.69 1008.31 1007.58 1007.59 1007.65 1008.11 1008.93 1010.04 1011.03 1012.39
1014.60 1014.24 1013.50 1014.04 1013.86 1013.12 1012.78 1012.20 1011.40 1010.86 1011.04 1011.20 1011.41 1011.15 1011.07 1011.41 1011.45 1011.51 1011.56 1011.28 1011.47 1011.70 1012.18 1012.59 1012.33 1012.06 1011.57 1010.63 1010.18 1009.62 1008.99 1008.38 1008.12 1008.22 1008.40 1007.91 1007.17 1006.57 1006.05 1006.43 1007.00 1007.98 1009.17 1010.92 1012.38
1014.05 1013.43 1012.13 1011.71 1013.06 1012.67 1011.86 1011.07 1010.41 1010.42 1010.17 1010.93 1011.27 1011.00 1011.14 1011.32 1011.33 1011.27 1011.18 1011.02 1010.96 1011.28 1011.75 1012.23 1012.12 1012.39 1011.89 1011.07 1010.75 1010.25 1009.18 1008.19 1007.95 1007.70 1007.40 1007.02 1006.35 1005.87 1005.83 1005.99 1006.47 1007.75 1008.51 1010.36 1012.36
1013.59 1012.71 1012.06 1011.52 1011.84 1011.86 1010.77 1010.23 1010.08 1009.82 1009.73 1009.92 1010.38 1010.68 1010.84 1011.24 1011.74 1011.47 1011.73 1012.27 1011.97 1011.87 1012.18 1012.60 1012.88 1012.78 1011.80 1011.88 1011.23 1010.43 1008.34 1008.18 1007.55 1007.18 1006.89 1006.48 1006.18 1005.97 1006.10 1006.71 1007.66 1008.80 1009.38 1010.73 1012.94
Thickness
5658 5660 5661 5663 5665 5668 5669 5672 5674 5677 5679 5682 5687 5693 5700 5705 5712 5725 5730 5725 5728 5732 5735 5743 5753 5761 5760 5756 5763 5761 5730 5736 5755 5766 5749 5764 5757 5759 5763 5747 5753 5754 5743 5739 5747
5651 5653 5652 5654 5656 5658 5661 5664 5667 5670 5672 5673 5681 5687 5693 5698 5707 5719 5718 5721 5722 5725 5731 5735 5737 5743 5741 5751 5753 5740 5732 5741 5751 5753 5746 5753 5752 5747 5745 5743 5738 5740 5743 5740 5737
5644 5644 5646 5644 5648 5648 5651 5655 5658 5662 5665 5667 5672 5680 5688 5692 5704 5714 5714 5715 5715 5717 5725 5730 5734 5731 5727 5741 5743 5739 5726 5745 5746 5740 5742 5742 5743 5745 5733 5725 5729 5726 5727 5729 5727
5634 5636 5637 5637 5638 5641 5640 5646 5651 5654 5657 5660 5664 5672 5682 5689 5688 5710 5707 5707 5711 5711 5716 5719 5721 5718 5718 5721 5741 5721 5736 5740 5737 5738 5731 5731 5738 5729 5728 5727 5728 5726 5724 5718 5714
5626 5628 5628 5628 5630 5631 5634 5636 5643 5647 5650 5652 5658 5662 5676 5686 5697 5704 5704 5703 5705 5709 5708 5709 5706 5712 5710 5724 5726 5717 5725 5734 5732 5728 5725 5726 5722 5719 5721 5728 5727 5717 5711 5707 5704
5614 5619 5619 5620 5622 5623 5627 5628 5634 5638 5641 5646 5648 5655 5667 5669 5703 5703 5701 5702 5705 5705 5707 5709 5706 5713 5707 5708 5707 5719 5720 5718 5724 5723 5724 5714 5717 5720 5725 5724 5718 5713 5697 5696 5691
5602 5606 5610 5609 5610 5615 5621 5619 5625 5629 5633 5635 5638 5646 5661 5672 5699 5694 5696 5696 5701 5700 5696 5706 5704 5697 5707 5698 5713 5709 5694 5707 5714 5715 5712 5719 5701 5709 5723 5715 5709 5708 5692 5680 5683
5597 5599 5597 5600 5601 5604 5612 5612 5614 5620 5625 5625 5627 5639 5658 5689 5686 5686 5687 5692 5695 5695 5691 5694 5693 5690 5691 5702 5698 5689 5694 5685 5719 5722 5709 5698 5686 5722 5718 5709 5699 5704 5689 5673 5663
5585 5592 5589 5587 5595 5595 5601 5604 5607 5610 5617 5615 5624 5636 5652 5679 5674 5682 5683 5683 5688 5687 5685 5688 5683 5678 5691 5676 5675 5692 5680 5694 5703 5715 5702 5691 5687 5709 5709 5697 5690 5693 5690 5670 5655
5574 5577 5578 5580 5581 5590 5591 5597 5602 5604 5610 5614 5626 5626 5652 5664 5678 5672 5678 5681 5677 5675 5669 5668 5671 5669 5673 5671 5658 5682 5689 5696 5695 5699 5693 5684 5683 5696 5703 5696 5690 5685 5676 5664 5651
5561 5562 5568 5568 5572 5576 5583 5593 5598 5600 5611 5632 5638 5645 5656 5666 5667 5664 5671 5667 5670 5662 5653 5666 5656 5658 5673 5683 5686 5688 5683 5677 5689 5701 5691 5686 5683 5684 5690 5691 5691 5684 5674 5662 5640
5548 5551 5554 5557 5558 5564 5568 5584 5597 5591 5603 5631 5637 5643 5652 5656 5642 5655 5666 5652 5653 5647 5656 5655 5650 5670 5678 5679 5669 5664 5661 5665 5678 5685 5679 5676 5674 5676 5680 5682 5683 5679 5664 5648 5633
5532 5537 5540 5542 5545 5551 5566 5578 5584 5582 5589 5626 5641 5644 5642 5639 5638 5646 5653 5649 5645 5642 5645 5647 5665 5674 5663 5662 5654 5653 5650 5655 5659 5669 5672 5660 5663 5666 5680 5681 5674 5661 5653 5640 5627
5517 5522 5522 5527 5532 5554 5555 5565 5570 5566 5576 5622 5629 5635 5635 5628 5627 5647 5656 5642 5638 5635 5639 5644 5660 5660 5654 5644 5645 5637 5658 5658 5650 5643 5633 5653 5638 5663 5668 5660 5651 5643 5638 5626 5617
5497 5505 5507 5514 5523 5535 5542 5544 5550 5552 5560 5619 5615 5626 5628 5617 5627 5632 5643 5633 5624 5631 5628 5635 5640 5638 5635 5641 5644 5637 5645 5634 5633 5626 5627 5637 5612 5667 5663 5659 5639 5630 5621 5611 5601
5484 5486 5491 5498 5510 5524 5521 5525 5533 5538 5559 5601 5610 5600 5600 5605 5614 5618 5613 5617 5623 5611 5622 5626 5639 5636 5635 5641 5637 5634 5618 5619 5617 5610 5600 5625 5615 5647 5651 5651 5642 5619 5615 5603 5594
5468 5471 5476 5488 5501 5506 5504 5509 5517 5538 5601 5589 5597 5602 5595 5597 5598 5603 5600 5594 5600 5589 5596 5611 5618 5624 5626 5618 5621 5611 5601 5587 5590 5592 5598 5636 5631 5640 5652 5648 5639 5612 5609 5601 5589
5452 5453 5461 5470 5482 5481 5485 5493 5509 5568 5569 5583 5592 5594 5589 5599 5596 5596 5595 5592 5599 5608 5604 5597 5596 5614 5625 5612 5607 5604 5599 5583 5569 5582 5594 5623 5603 5621 5643 5641 5632 5619 5601 5594 5581
5438 5440 5445 5455 5462 5464 5469 5477 5531 5547 5569 5565 5578 5572 5580 5591 5595 5589 5590 5593 5602 5602 5593 5601 5606 5620 5620 5615 5608 5601 5588 5604 5582 5583 5572 5591 5612 5628 5642 5639 5616 5607 5595 5577 5573
5428 5431 5441 5444 5445 5448 5454 5491 5523 5541 5544 5546 5551 5568 5568 5577 5573 5573 5574 5589 5591 5587 5596 5594 5583 5600 5600 5599 5599 5586 5593 5570 5572 5539 5550 5578 5591 5601 5592 5595 5590 5583 5580 5573 5561
5414 5418 5442 5436 5430 5434 5455 5496 5510 5527 5521 5523 5531 5540 5552 5552 5558 5557 5570 5565 5563 5566 5572 5572 5573 5579 5588 5558 5571 5576 5570 5568 5564 5560 5547 5550 5572 5577 5563 5574 5569 5561 5548 5546 5552
5407 5409 5431 5425 5418 5433 5461 5491 5499 5507 5507 5511 5513 5515 5520 5532 5529 5531 5538 5527 5543 5543 5544 5553 5550 5550 5563 5578 5583 5567 5557 5559 5534 5540 5526 5521 5533 5578 5558 5562 5549 5547 5550 5551 5529
5397 5403 5414 5418 5420 5434 5460 5477 5481 5490 5494 5499 5499 5504 5508 5512 5506 5516 5525 5511 5523 5522 5523 5525 5529 5523 5539 5550 5564 5556 5556 5557 5557 5551 5540 5528 5545 5578 5566 5556 5547 5537 5531 5536 5526
5386 5390 5394 5403 5432 5447 5454 5463 5474 5481 5486 5488 5492 5496 5495 5494 5499 5496 5506 5508 5510 5511 5505 5508 5516 5517 5515 5530 5538 5529 5535 5545 5546 5525 5529 5532 5533 5552 5551 5551 5545 5540 5537 5527 5511
5387 5397 5410 5404 5420 5442 5448 5462 5467 5475 5478 5477 5475 5481 5483 5478 5482 5484 5493 5498 5497 5499 5503 5498 5495 5503 5508 5523 5523 5524 5530 5540 5536 5538 5521 5531 5536 5550 5559 5556 5545 5539 5534 5517 5503
5381 5396 5423 5441 5426 5430 5443 5455 5468 5470 5472 5466 5465 5473 5475 5472 5477 5480 5488 5492 5492 5497 5493 5494 5490 5491 5492 5512 5508 5504 5520 5531 5531 5532 5534 5537 5535 5556 5556 5557 5548 5534 5532 5515 5497
5376 5396 5410 5426 5424 5424 5443 5455 5457 5466 5468 5470 5466 5465 5466 5471 5463 5473 5474 5475 5480 5482 5478 5479 5469 5474 5484 5494 5492 5481 5521 5520 5522 5528 5529 5518 5533 5542 5539 5531 5529 5520 5517 5506 5479